MORELOS 1 R/B(PAM-D), 15832

Orbit data source: Space-Track

MORELOS 1 R/B(PAM-D), 15832 is space debris in HEO originally from a launch on Mon, 17 Jun 1985 UTC launched from the Air Force Eastern Test Range (AFETR). Debris objects in space refer to the collection of defunct objects orbiting the Earth. Examples of debris include non-operational satellites, rocket bodies, and fragments generated from explosions, collisions, or faulty payload assembly.

Loading next visibility...
Identifier
15832, 1985-048F
Orbit
HEO
Country
Flag of USUS
Related business
Manufacturer
Thiokol/TE
Mission
Spacecraft
Bus & Motor
STAR 48, Unknown motor
Mass
132 kg wet, 132 kg dry
Launch date (UTC)
1985-06-17 (41 years ago)
Launch vehicle
Unknown
Launch site
Air Force Eastern Test Range (AFETR)
Object type
Payload
Rocket body
Debris
Shape & HBR
Unknown
Radar Cross Section
Large (>1 m²)

Expand to show TLE details & history
Last TLE update: 2 days ago

TLE from 2 days ago
0 MORELOS 1 R/B(PAM-D)
1 15832U 85048F   26093.01547403  .00001095  00000-0  20293-2 0  9991
2 15832  25.4132  66.1720 7145128 143.4005 298.3623  2.38984317294097
Epoch: 2026-04-03T00:22Z
TLE epoch observation values (Epoch: 2026-04-03T00:22:16.956Z)
Latitude
-0.00001°
Longitude
-130.73955°
Altitude
20,682.86 km
Speed
3.548 km/s
True Right ascension
04h 24m 44s
True Declination
0° 00' 00"
Sunlit
Object was in daylight at epoch
Visualization orbit readout
Latitude
Unknown
Longitude
Unknown
Altitude
Unknown
Speed
Unknown
Apparent Right ascension
Unknown
Apparent Declination
Unknown
Sunlit
N/A
Visualization observer readout
Local Sidereal Time
07:43:32
Azimuth
Unknown
Elevation
Unknown
Doppler factor
Unknown
Orbital elements
Apogee altitude
34,144.929 km
Perigee altitude
369.446 km
Semi-major axis
23,635.324 km
Eccentricity
0.71451
Inclination
25.4132°
RAAN
66.172°
Arg. of periapsis
143.4005°
True anomaly
216.74054°
Mean anomaly
298.3623°
Eccentric anomaly
258.27757°
Mean motion
0.59731 °/min
Orbital period
602.7 mins
BSTAR
0.0020293
Loading maneuver chart data...
Computing Atmospheric mass density...
Loading historical data...
Loading historical data...
Loading historical data...
Loading historical data...
Loading historical data...
Loading historical data...
Loading historical data...

Documentation

Showing up to 5 results
|